TimeCDT,TemperatureF,Dew PointF,Humidity,Sea Level PressureIn,VisibilityMPH,Wind Direction,Wind SpeedMPH,Gust SpeedMPH,PrecipitationIn,Events,Conditions,WindDirDegrees,DateUTC
12:53 AM,77.0,75.0,94,29.98,10.0,SSE,4.6,-,N/A,,Partly Cloudy,150,2013-10-13 05:53:00
1:53 AM,77.0,75.0,94,29.99,10.0,SE,4.6,-,N/A,,Partly Cloudy,140,2013-10-13 06:53:00
2:18 AM,77.0,75.2,94,29.99,10.0,SSE,3.5,-,N/A,,Mostly Cloudy,150,2013-10-13 07:18:00
2:53 AM,77.0,75.0,94,29.99,10.0,Calm,Calm,-,N/A,,Mostly Cloudy,0,2013-10-13 07:53:00
3:21 AM,77.0,75.2,94,29.99,10.0,South,3.5,-,N/A,,Scattered Clouds,170,2013-10-13 08:21:00
3:53 AM,75.9,73.9,94,29.99,9.0,SSE,3.5,-,N/A,,Scattered Clouds,160,2013-10-13 08:53:00
4:53 AM,75.9,75.0,97,29.99,8.0,Calm,Calm,-,N/A,,Clear,0,2013-10-13 09:53:00
5:53 AM,75.0,73.9,96,29.99,8.0,ESE,3.5,-,N/A,,Partly Cloudy,120,2013-10-13 10:53:00
6:30 AM,75.2,75.2,100,30.01,9.0,SSE,3.5,-,N/A,,Mostly Cloudy,150,2013-10-13 11:30:00
6:33 AM,75.2,75.2,100,30.01,9.0,SE,3.5,-,N/A,,Scattered Clouds,130,2013-10-13 11:33:00
6:53 AM,75.9,75.0,97,30.01,8.0,Calm,Calm,-,N/A,,Partly Cloudy,0,2013-10-13 11:53:00
7:53 AM,73.9,73.0,97,30.04,3.0,Calm,Calm,-,N/A,,Clear,0,2013-10-13 12:53:00
8:53 AM,79.0,75.9,90,30.05,10.0,Calm,Calm,-,N/A,,Clear,0,2013-10-13 13:53:00
9:16 AM,80.6,77.0,89,30.06,10.0,SSE,8.1,-,N/A,,Partly Cloudy,160,2013-10-13 14:16:00
9:53 AM,84.0,75.9,76,30.07,10.0,SSE,9.2,-,N/A,,Scattered Clouds,160,2013-10-13 14:53:00
10:53 AM,87.1,73.9,65,30.06,10.0,SSE,13.8,-,N/A,,Scattered Clouds,150,2013-10-13 15:53:00
11:53 AM,89.1,72.0,57,30.06,10.0,South,15.0,19.6,N/A,,Scattered Clouds,170,2013-10-13 16:53:00
12:53 PM,90.0,73.0,57,30.02,10.0,SSE,9.2,21.9,N/A,,Partly Cloudy,150,2013-10-13 17:53:00
1:53 PM,91.0,72.0,53,29.98,10.0,SE,13.8,18.4,N/A,,Scattered Clouds,140,2013-10-13 18:53:00
2:53 PM,90.0,72.0,55,29.96,10.0,SSE,16.1,23.0,N/A,,Clear,150,2013-10-13 19:53:00
3:53 PM,89.1,72.0,57,29.93,10.0,ESE,15.0,21.9,N/A,,Scattered Clouds,120,2013-10-13 20:53:00
4:53 PM,88.0,70.0,55,29.94,10.0,SE,18.4,25.3,N/A,,Partly Cloudy,130,2013-10-13 21:53:00
5:53 PM,86.0,69.1,57,29.95,10.0,SE,19.6,25.3,N/A,,Clear,130,2013-10-13 22:53:00
6:53 PM,84.0,70.0,63,29.97,10.0,ESE,13.8,24.2,N/A,,Clear,110,2013-10-13 23:53:00
7:53 PM,82.0,73.0,74,29.99,10.0,ESE,13.8,24.2,N/A,,Partly Cloudy,110,2013-10-14 00:53:00
8:53 PM,81.0,73.9,79,30.01,10.0,ESE,19.6,25.3,N/A,,Scattered Clouds,110,2013-10-14 01:53:00
9:04 PM,80.6,75.2,84,30.02,10.0,ESE,15.0,23.0,N/A,,Mostly Cloudy,110,2013-10-14 02:04:00
9:53 PM,81.0,75.0,82,30.03,10.0,East,12.7,-,N/A,,Mostly Cloudy,100,2013-10-14 02:53:00
10:53 PM,80.1,75.0,85,30.02,10.0,East,10.4,-,N/A,,Partly Cloudy,100,2013-10-14 03:53:00
11:53 PM,80.1,73.0,79,30.05,10.0,East,9.2,-,N/A,,Mostly Cloudy,80,2013-10-14 04:53:00